Location: Besigheim
(48.9980°N, 9.1427°E)
Time: 16:55:28
(UTC+00:00)

SL-24 R/B - RUBIN 2 - Pass Details

Date: 16 February 2026
Orbit: 603 x 984 km, 64.6° (Epoch: 8 March)

Event Time Altitude Azimuth Distance (km) Brightness Sun altitude
Exits shadow 04:03:02 19° 349° (N) 1,536 5.5 -24.7°
Drops below altitude 10° 04:05:22 10° 19° (NNE) 1,996 6.5 -24.3°
Sets 04:08:07 0° 38° (NE) 2,878 7.7 -23.9°
